OSCAR 14 (UOSAT 3)

Satellite information

Favourite Embed

Satellite Type and Status

PAYLOADIN ORBIT

Key statistics

Satellite OSCAR 14 (UOSAT 3) at a glance.

Uptime

12888

Days in orbit

Revolutions

≈ 14.3

Per day

Orbit

SSO

Sun Synchronous Orbit

Inclination

98.9

Latest

Satellite identification and parameters

Extended collection of information and parameters for OSCAR 14 (UOSAT 3).

Object identification

Identified? True

Debris? False

Object name: OSCAR 14 (UOSAT 3)

International designator: 1990-005B

Object number (NORAD): 20437

Object ID (CCSDS): 20437

Country: UNITED KINGDOM (UK)

Current information (Y/N): Y

RCS size: MEDIUM

Orbital parameters

Period: 100.48 minutes

Inclination: 98.8562 deg

SMA: 7159.457 km

Apoapsis: 789.044 km

Periapsis: 773.601 km

RAAN: 162.0547 deg

Eccentricy: 0.0010785

Argument of periapsis: 24.7187 deg

Mean anomaly: 148.6265 deg

Mean motion: 14.33120197 rev/day

Mean motion (dot): 0.0000019 rev/day2

B* drag term: 0.00008595 1/REarth

Two-line elements (TLE)

Creation date: May 6, 2025, 3:54 a.m.

Reference frame: TEME

Reference center: EARTH

Epoch: May 5, 2025, 8:44 p.m. UTC

TLE line 0: 0 OSCAR 14 (UOSAT 3)

TLE line 1: 1 20437U 90005B 25125.86392596 .00000190 00000-0 85950-4 0 9994

TLE line 2: 2 20437 98.8562 162.0547 0010785 24.7187 148.6265 14.33120197843245

Live tracking on map

Real-time ground track for satellite OSCAR 14 (UOSAT 3).

In-orbit conjunctions

There are no conjunctions computed for OSCAR 14 (UOSAT 3), at the moment. Check back to stay up to date, as we update our databases every day.

Go to all conjunctions

Associated space launch

French Earth observation satellite

OSCAR 14 (UOSAT 3) was lifted into orbit during the mission ‘Ariane 40 | SPOT 2’, on board a Ariane 40 space rocket.

The launch took place on Jan. 22, 1990, 1:35 a.m. from Ariane Launch Area 2.

For more information about the launch, click the button.

Launch to space Ariane 40 | SPOT 2
Ariane 40 | SPOT 2

Agency: N/A

Status: Launch Successful

Launch date: Jan. 22, 1990, 1:35 a.m. UTC

Rocket: Ariane 40

Launch pad: Ariane Launch Area 2

Location: Guiana Space Centre, French Guiana

...

Latest news about this satellite

There are no fresh news available about this satellite. Check back as we update our databases every day.


Newsletter sign-up

Weekly statistics, charts and insights to help you stay on top of the space industry.